When you browse on this site, cookies collect data to enhance your experience and personalize the content and advertising you see.
Visit our Privacy Policy to learn more. By continuing to use the site, you agree to this use of cookies and data.
  • In Hungary
  • List of Countries
  • For 7 days
  • Water Temperature
  • Satellite Maps
  • Weather Map
  • News
  • Weather Widgets
  • user-avatar
    Login

    Hourly Weather Nam Dinh

    Today, 22 January, Tuesday

    Time Temperature Precipitation Wind Pressure Humidity
    00:00 +14°C° 0 mm 3 mps 767 mmHg 64%
    01:00 +14°C° 0 mm 3 mps 768 mmHg 65%
    02:00 +14°C° 0 mm 3 mps 767 mmHg 63%
    03:00 +14°C° 0 mm 3 mps 767 mmHg 61%
    04:00 +14°C° 0 mm 3 mps 767 mmHg 59%
    05:00 +14°C° 0 mm 3 mps 767 mmHg 58%
    06:00 +14°C° 0 mm 3 mps 767 mmHg 57%
    07:00 +13°C° 0 mm 4 mps 768 mmHg 54%
    08:00 +14°C° 0 mm 4 mps 768 mmHg 52%
    09:00 +16°C° 0 mm 3 mps 768 mmHg 50%
    10:00 +16°C° 0 mm 3 mps 769 mmHg 47%
    11:00 +17°C° 0 mm 3 mps 768 mmHg 46%
    12:00 +18°C° 0 mm 2 mps 767 mmHg 45%
    13:00 +18°C° 0 mm 2 mps 767 mmHg 45%
    14:00 +19°C° 0 mm 2 mps 766 mmHg 45%
    15:00 +20°C° 0 mm 2 mps 766 mmHg 45%
    16:00 +20°C° 0 mm 2 mps 765 mmHg 45%
    17:00 +21°C° 0 mm 1 mps 765 mmHg 50%
    18:00 +20°C° 0 mm 1 mps 765 mmHg 55%
    19:00 +17°C° 0 mm 0 mps 765 mmHg 55%
    20:00 +18°C° 0 mm 1 mps 765 mmHg 57%
    21:00 +18°C° 0 mm 1 mps 765 mmHg 60%
    22:00 +18°C° 0 mm 1 mps 766 mmHg 62%
    23:00 +16°C° 0 mm 1 mps 765 mmHg 63%

    Tomorrow, 23 January, Wednesday

    Time Temperature Precipitation Wind Pressure Humidity
    00:00 +16°C° 0 mm 1 mps 765 mmHg 64%
    01:00 +15°C° 0 mm 0 mps 765 mmHg 66%
    02:00 +15°C° 0 mm 0 mps 765 mmHg 66%
    03:00 +15°C° 0 mm 0 mps 764 mmHg 67%
    04:00 +14°C° 0 mm 0 mps 764 mmHg 68%
    05:00 +14°C° 0 mm 0 mps 764 mmHg 69%
    06:00 +15°C° 0 mm 1 mps 765 mmHg 69%
    07:00 +15°C° 0 mm 1 mps 765 mmHg 70%
    08:00 +18°C° 0 mm 1 mps 765 mmHg 64%
    09:00 +19°C° 0 mm 1 mps 766 mmHg 59%
    10:00 +21°C° 0 mm 1 mps 766 mmHg 54%
    11:00 +21°C° 0 mm 2 mps 765 mmHg 52%
    12:00 +23°C° 0 mm 2 mps 764 mmHg 51%
    13:00 +24°C° 0 mm 3 mps 764 mmHg 49%
    14:00 +24°C° 0 mm 3 mps 763 mmHg 51%
    15:00 +24°C° 0 mm 3 mps 763 mmHg 52%
    16:00 +23°C° 0 mm 4 mps 762 mmHg 53%
    17:00 +22°C° 0 mm 3 mps 763 mmHg 58%
    18:00 +21°C° 0 mm 3 mps 763 mmHg 64%
    19:00 +20°C° 0 mm 3 mps 763 mmHg 69%
    20:00 +20°C° 0 mm 2 mps 763 mmHg 72%
    21:00 +19°C° 0 mm 2 mps 764 mmHg 75%
    22:00 +20°C° 0 mm 1 mps 764 mmHg 78%
    23:00 +20°C° 0 mm 1 mps 764 mmHg 79%

    Day after tomorrow, 24 January, Thursday

    Time Temperature Precipitation Wind Pressure Humidity
    00:00 +20°C° 0 mm 1 mps 764 mmHg 80%
    01:00 +18°C° 0 mm 0 mps 764 mmHg 81%
    02:00 +20°C° 0 mm 1 mps 763 mmHg 81%
    03:00 +20°C° 0 mm 1 mps 763 mmHg 82%
    04:00 +20°C° 0 mm 1 mps 763 mmHg 82%
    05:00 +20°C° 0 mm 1 mps 763 mmHg 82%
    06:00 +20°C° 0 mm 1 mps 763 mmHg 83%
    07:00 +20°C° 0 mm 1 mps 764 mmHg 84%
    08:00 +20°C° 0 mm 1 mps 764 mmHg 82%
    09:00 +21°C° 0 mm 1 mps 765 mmHg 80%
    10:00 +21°C° 0 mm 1 mps 765 mmHg 78%
    11:00 +22°C° 0 mm 1 mps 764 mmHg 73%
    12:00 +23°C° 0 mm 1 mps 764 mmHg 69%
    13:00 +24°C° 0 mm 1 mps 763 mmHg 64%
    14:00 +25°C° 0 mm 1 mps 763 mmHg 63%
    15:00 +25°C° 0 mm 1 mps 762 mmHg 62%
    16:00 +25°C° 0 mm 2 mps 762 mmHg 61%
    17:00 +24°C° 0 mm 2 mps 762 mmHg 63%
    18:00 +24°C° 0 mm 2 mps 762 mmHg 66%
    19:00 +23°C° 0 mm 2 mps 763 mmHg 69%
    20:00 +23°C° 0 mm 2 mps 763 mmHg 72%
    21:00 +21°C° 0 mm 2 mps 763 mmHg 76%
    22:00 +21°C° 0 mm 2 mps 763 mmHg 79%
    23:00 +21°C° 0 mm 2 mps 763 mmHg 81%

    25 January, Friday

    Time Temperature Precipitation Wind Pressure Humidity
    00:00 +22°C° 0 mm 1 mps 763 mmHg 82%
    01:00 +22°C° 0 mm 1 mps 763 mmHg 84%
    02:00 +22°C° 0.1 mm 1 mps 763 mmHg 85%
    03:00 +22°C° 0.1 mm 1 mps 762 mmHg 85%
    04:00 +22°C° 0.1 mm 1 mps 762 mmHg 86%
    05:00 +21°C° 0.2 mm 2 mps 763 mmHg 86%
    06:00 +21°C° 0.2 mm 2 mps 763 mmHg 86%
    07:00 +21°C° 0.2 mm 2 mps 764 mmHg 86%
    08:00 +21°C° 0.2 mm 2 mps 764 mmHg 85%
    09:00 +21°C° 0.2 mm 2 mps 765 mmHg 84%
    10:00 +21°C° 0.2 mm 2 mps 766 mmHg 83%
    11:00 +23°C° 0.1 mm 2 mps 765 mmHg 80%
    12:00 +23°C° 0.1 mm 2 mps 765 mmHg 76%
    13:00 +24°C° 0.1 mm 2 mps 764 mmHg 73%
    14:00 +24°C° 0.1 mm 2 mps 764 mmHg 72%
    15:00 +24°C° 0.1 mm 2 mps 764 mmHg 70%
    16:00 +25°C° 0.1 mm 2 mps 764 mmHg 68%
    17:00 +24°C° 0 mm 2 mps 764 mmHg 72%
    18:00 +23°C° 0 mm 2 mps 765 mmHg 77%
    19:00 +23°C° 0 mm 2 mps 765 mmHg 81%
    20:00 +21°C° 0.1 mm 2 mps 766 mmHg 82%
    21:00 +21°C° 0.1 mm 2 mps 766 mmHg 83%
    22:00 +21°C° 0.1 mm 2 mps 767 mmHg 84%
    23:00 +21°C° 0.1 mm 2 mps 766 mmHg 84%

    26 January, Saturday

    Time Temperature Precipitation Wind Pressure Humidity
    00:00 +21°C° 0.1 mm 2 mps 766 mmHg 84%
    01:00 +21°C° 0.1 mm 2 mps 766 mmHg 84%
    02:00 +21°C° 0.2 mm 2 mps 766 mmHg 84%
    03:00 +21°C° 0.2 mm 2 mps 765 mmHg 83%
    04:00 +21°C° 0.2 mm 2 mps 765 mmHg 83%
    05:00 +21°C° 0.1 mm 2 mps 766 mmHg 83%
    06:00 +20°C° 0.1 mm 2 mps 766 mmHg 83%
    07:00 +20°C° 0.1 mm 2 mps 767 mmHg 83%
    08:00 +21°C° 0.1 mm 2 mps 767 mmHg 79%
    09:00 +22°C° 0.1 mm 3 mps 768 mmHg 75%
    10:00 +24°C° 0.1 mm 3 mps 768 mmHg 70%
    11:00 +24°C° 0.1 mm 3 mps 768 mmHg 66%
    12:00 +25°C° 0.1 mm 3 mps 767 mmHg 62%
    13:00 +25°C° 0.1 mm 4 mps 766 mmHg 58%
    14:00 +25°C° 0 mm 4 mps 766 mmHg 57%
    15:00 +26°C° 0 mm 4 mps 765 mmHg 57%
    16:00 +26°C° 0 mm 4 mps 765 mmHg 56%
    17:00 +23°C° 0 mm 4 mps 765 mmHg 62%
    18:00 +22°C° 0 mm 3 mps 766 mmHg 68%
    19:00 +21°C° 0 mm 3 mps 766 mmHg 75%
    20:00 +21°C° 0 mm 2 mps 766 mmHg 77%
    21:00 +20°C° 0 mm 2 mps 767 mmHg 79%
    22:00 +21°C° 0 mm 1 mps 767 mmHg 82%
    23:00 +21°C° 0 mm 1 mps 767 mmHg 83%

    27 January, Sunday

    Time Temperature Precipitation Wind Pressure Humidity
    00:00 +21°C° 0 mm 1 mps 766 mmHg 84%
    01:00 +18°C° 0 mm 0 mps 766 mmHg 85%
    02:00 +20°C° 0 mm 1 mps 766 mmHg 86%
    03:00 +20°C° 0 mm 1 mps 765 mmHg 87%
    04:00 +20°C° 0 mm 1 mps 765 mmHg 88%
    05:00 +20°C° 0 mm 1 mps 766 mmHg 88%
    06:00 +20°C° 0 mm 1 mps 766 mmHg 89%
    07:00 +19°C° 0 mm 1 mps 766 mmHg 89%
    08:00 +20°C° 0 mm 2 mps 767 mmHg 80%
    09:00 +22°C° 0 mm 3 mps 767 mmHg 71%
    10:00 +24°C° 0 mm 3 mps 768 mmHg 62%
    11:00 +25°C° 0 mm 4 mps 767 mmHg 58%
    12:00 +26°C° 0 mm 4 mps 766 mmHg 55%
    13:00 +26°C° 0 mm 4 mps 765 mmHg 51%
    14:00 +26°C° 0 mm 4 mps 765 mmHg 53%
    15:00 +25°C° 0 mm 4 mps 764 mmHg 55%
    16:00 +25°C° 0 mm 5 mps 764 mmHg 56%
    17:00 +23°C° 0 mm 4 mps 764 mmHg 61%
    18:00 +22°C° 0 mm 3 mps 764 mmHg 66%
    19:00 +21°C° 0 mm 2 mps 764 mmHg 72%
    20:00 +21°C° 0 mm 2 mps 765 mmHg 74%
    21:00 +21°C° 0 mm 2 mps 765 mmHg 77%
    22:00 +21°C° 0 mm 1 mps 765 mmHg 80%
    23:00 +21°C° 0 mm 1 mps 765 mmHg 82%
    Show more